P/2005 XA54 (LONEOS-Hill)

Epoch 2006 Mar. 6.0 TT = JDT 2453800.5  

T 2006 Mar. 7.90618 TT                                  Nakano

q   1.7776669            (2000.0)            P               Q

n   0.06489227     Peri.   15.35943     -0.93064925     -0.32412435

a   6.1330153      Node   144.24838     +0.29758312     -0.94046880

e   0.7101480      Incl.   16.89595     +0.21292312     -0.10228314

P  15.19 (+/- 0.01 day)

From 560 observations 2005 Dec. 4-2006 June 1, mean residual 0".53.

Residuals in seconds of arc 

2005/                     060218 J76  0.1-  0.2-    060324 213  0.1+  0.3+  

051204 699  0.7-  0.3+    060220 691  0.7-  0.3+    060324 213  0.1+  0.6+  

051204 699 (3.1+  0.7+)   060220 691  0.9-  0.2+    060325 H06  0.0   0.4-  

051204 699 (2.1+  0.4-)   060220 691  0.6-  0.1+    060325 H06  0.0   0.4-  

051204 699  0.6-  0.8-    060220 703 (3.7-  0.3-)   060325 379  0.7-  0.0   

051206 703  0.9-  0.1+    060220 703  1.7-  0.6+    060325 379  0.4-  0.0   

051206 704  0.4+  0.7-    060220 703 (3.0-  0.1+)   060325 379  0.1+  0.0   

051206 703  0.7-  0.2-    060220 G96 (2.9-  0.1-)   060325 379  0.5-  0.0   

051206 704  0.7+  0.3-    060220 G96 (2.3-  0.1-)   060325 379  0.2-  0.1+  

051206 703  0.0   0.7-    060220 G96 (2.2-  0.1-)   060325 379  0.5-  0.0   

051206 704  0.6+  0.4-    060220 G96 (2.0-  0.2-)   060325 379  0.4-  0.2-  

051206 704  0.5+  0.1-    060220 H06  0.1-  0.3-    060325 379  0.0   0.0   

051206 704  0.1-  0.0     060220 H06  0.1-  0.2-    060325 A77  0.5-  0.8-  

051225 703 (0.4-  2.1-)   060222 291  1.1-  0.3+    060325 A77  0.5-  0.7-  

051225 703  0.8-  1.1-    060222 291  1.3-  0.2+    060325 A77  0.1-  0.8-  

051225 703  0.6-  1.5-    060222 291  0.3-  0.3+    060326 939  0.3+  0.3-  

2006/                     060222 704  0.7+  0.1+    060326 939  0.2+  0.1-  

060102 704  0.5+  0.0     060222 704  0.3+  0.2+    060326 939  0.2+  0.1+  

060102 704  0.6+  0.1+    060222 704  0.1+  0.2+    060327 945  0.1+  0.6+  

060102 704  0.5+  0.0     060222 704  0.1+  0.2+    060327 945  1.1+  0.8+  

060102 704  0.6+  0.1-    060222 704  0.1+  0.1+    060327 945  0.0   0.4+  

060102 704  1.2+  0.0     060222 704  1.1+  0.2+    060327 945  0.3+  0.5+  

060106 703  0.6-  0.2-    060222 704  0.1+  0.2+    060327 945  0.3+  0.8+  

060106 703  1.0-  0.0     060222 704  0.1-  0.2+    060327 A11  0.2+  0.8+  

060106 703  0.7-  0.2-    060222 704  0.2+  0.4+    060327 A11  0.6+  0.2-  

060106 703  0.6-  0.1-    060222 945  0.2+  0.6+    060327 A11  0.1-  0.4+  

060106 703  0.9-  0.2+    060223 945  0.4+  0.5+    060327 A11  0.9+  0.1+  

060106 703  0.8-  0.0     060223 945  0.2+  0.4+    060328 A11  0.1-  0.2+  

060106 703  0.7-  0.0     060223 945  0.5+  0.4+    060328 A11  0.4-  0.3+  

060106 703  0.5-  0.1-    060223 945  0.2+  0.5+    060328 A11  0.5-  0.5+  

060106 703  0.9-  0.1+    060223 704  0.0   0.1+    060328 A11  0.2-  0.2+  

060106 703  0.1-  0.4+    060223 704  0.2+  0.2+    060328 A11  0.1-  0.2+  

060106 703  0.4-  0.3+    060223 704  0.2-  0.4+    060328 J97  0.5-  0.4-  

060106 703  1.3-  0.2+    060223 704  0.1+  0.1+    060328 J64  0.0   0.3+  

060106 703  0.7-  0.1-    060223 704  0.0   0.4+    060328 J64  0.5-  0.1+  

060106 703  0.7-  0.2+    060223 704  0.1-  0.3+    060328 J64  0.7-  0.3-  

060106 703  0.4-  0.3+    060223 704  0.2+  0.1+    060329 H45  0.4-  0.8+  

060106 703  1.4-  0.6+    060223 704  0.3+  0.4+    060329 H45  0.5+  0.2-  

060106 703  1.1-  0.1+    060223 704  0.4+  0.1+    060329 H45  0.5-  0.5+  

060106 703  0.8-  0.1+    060223 704  0.6+  0.1-    060329 H45  0.8-  0.5+  

060106 703  1.3-  0.4+    060224 850  0.1-  0.0     060329 565  0.5+  0.9+  

060106 703  1.3-  0.3+    060224 608 (0.4-  2.6+)   060329 565  0.2+  0.5+  

060107 673  1.0+  0.3+    060224 850  0.2-  0.4+    060329 565  0.4+  0.3+  

060107 673  1.3+  0.0     060224 608 (0.2-  2.6+)   060329 565  0.4+  0.3+  

060107 673  1.0+  0.1-    060224 608 (0.2-  2.5+)   060329 565  0.1+  0.4+  

060107 699  0.4-  0.5+    060224 850  0.1-  0.0     060329 J64  0.4-  0.7+  

060107 699  0.3-  0.4+    060224 H06  0.2-  0.0     060329 J64  0.2-  0.9+  

060107 699  0.0   0.4+    060224 H06  0.2-  0.0     060329 J64  0.0   1.0+  

060107 699  0.3+  0.5+    060224 232  0.3+  0.6+    060330 379  0.4+  0.4-  

060107 D88  0.7+  0.6-    060224 232  0.5+  0.4+    060330 379  0.2+  0.1+  

060107 D88  0.7+  0.0     060224 232  0.2+  0.4+    060330 A30  0.0   0.5-  

060107 D88  0.6+  0.3-    060225 704  0.2-  0.2-    060330 A30  0.0   0.4+  

060107 349  0.7+  0.3-    060225 704  0.1-  0.3+    060331 699 (2.3+  5.0-) 

060107 349  0.7+  0.5-    060225 704  0.2+  0.2+    060331 699 (2.5+  4.1-) 

060107 349  0.8+  0.4-    060225 704  0.4+  0.0     060331 699 (2.9+  4.1-) 

060107 D83  0.7+  0.2-    060225 704  0.4+  0.3+    060331 699  0.6+  1.8-  

060107 D83  0.3+  0.3-    060225 442  0.3-  0.5+    060331 D88  0.4+  0.4-  

060107 D83  0.1-  0.3+    060226 J55  0.3-  0.3-    060331 D88  0.8-  0.1+  

060107 D83  0.5+  0.2+    060226 J55  0.0   0.4-    060331 D88  0.9-  0.3-  

060108 349  0.2+  0.5-    060226 J55  0.1-  0.3-    060331 D83  0.3+  0.3+  

060108 349  0.3+  0.4-    060226 H06  0.2-  0.1-    060331 D83  0.9+  1.4-  

060108 349  0.5+  0.1-    060226 H06  0.0   0.2-    060331 D83  0.4+  0.6-  

060109 703 (2.0-  0.2+)   060227 850  0.5-  0.5-    060331 D83  0.3-  0.5-  

060109 703  0.6-  0.2+    060227 850  0.3-  0.2-    060331 118  0.6-  0.1+  

060109 703  0.9-  0.3+    060227 850  0.1-  0.1-    060331 118  0.4-  0.1+  

060109 703  0.8-  0.3+    060227 850  0.2-  0.3-    060331 118  0.4-  0.1+  

060110 415  0.7+  0.5-    060227 240  0.1-  0.0     060331 232  0.7-  0.6-  

060110 415  0.4+  0.4-    060227 240  0.1-  0.1+    060331 232  0.7-  0.2+  

060110 415  0.1+  0.4-    060227 240  0.0   0.1-    060331 232  0.6-  0.5-  

060111 704  0.5+  0.1+    060227 240  0.1-  0.0     060401 A11  0.0   0.1+  

060111 704  0.5+  0.3+    060227 240  0.0   0.0     060401 A11  0.2-  0.5+  

060111 704  0.3+  0.1+    060228 A32  0.1+  0.2-    060401 A11  1.3-  0.2-  

060111 704  0.1+  0.4+    060228 A32  0.0   0.1-    060401 A11  0.1-  0.0   

060111 704  0.8+  0.3-    060228 A32  0.1-  0.2+    060401 A11  0.3+  0.5+  

060119 215  0.2+  0.4-    060228 704  0.6+  0.6+    060402 J97  0.8-  0.5-  

060119 215  0.1+  0.4-    060228 704  1.1+  0.1-    060402 J97  0.5-  0.4-  

060119 215  0.0   0.4-    060228 704  0.6+  0.2+    060402 J97  0.1-  0.3-  

060122 232  0.3-  0.9-    060228 704  1.0+  0.7+    060403 379  0.3+  0.5+  

060122 232  0.9+  0.1-    060228 704  0.6+  0.5+    060403 379  0.1+  0.2+  

060122 232  0.5+  0.1-    060301 A11  0.5+  0.2+    060403 379  0.4+  0.3+  

060122 415  0.3+  0.8-    060301 A11  0.3+  0.4+    060403 379  0.0   0.3+  

060122 415  0.2+  0.5-    060301 A11  0.1-  0.3+    060403 379  0.0   0.2+  

060122 130  0.1+  0.6-    060301 A11  0.5+  0.5+    060405 379  0.7+  0.8-  

060122 130  0.3+  0.6-    060301 A11  0.3+  0.4+    060405 379  0.2-  0.7+  

060122 130  0.4+  0.3-    060302 104  0.2-  0.1+    060405 379  0.1-  1.1-  

060123 704  0.4+  0.1+    060302 104  0.0   0.3+    060406 J64  0.0   0.2-  

060123 704  0.3+  0.1+    060302 104  0.2-  0.3+    060406 J64  0.0   0.3+  

060123 704  0.1+  0.2+    060302 104  0.2-  0.3+    060406 J64  0.8-  0.5+  

060123 704  0.1+  0.1-    060303 699  0.7-  1.6-    060406 703  1.3-  0.7-  

060123 704  0.1-  0.3+    060303 699  1.7-  1.7-    060406 703  1.2-  0.2-  

060123 349  0.6+  0.2-    060303 699  1.0-  1.3-    060406 703  1.5-  1.1-  

060123 349  0.4+  0.2-    060303 699  1.0-  0.1-    060406 703  0.6-  1.2-  

060123 349  0.4+  0.2-    060304 939  0.5+  0.4-    060406 048  0.0   0.3+  

060124 699  0.2-  0.6+    060304 939  0.3+  0.3-    060406 048  0.1-  0.5+  

060124 699  0.0   0.6+    060304 939  0.2+  0.3-    060406 048  0.1-  0.5+  

060124 699  0.8-  1.0+    060304 D88  0.2-  0.2-    060406 048  0.2-  0.3+  

060124 699  1.0-  0.1-    060304 D88  0.6-  0.1-    060406 048  0.3+  0.8+  

060124 D88  0.1+  0.2-    060304 D88  0.1-  0.1+    060407 379  0.3-  0.3+  

060124 D88  0.2-  0.4-    060304 349  0.2+  0.4-    060407 379  0.2+  0.3+  

060124 D88  0.0   0.5-    060304 349  0.2+  0.2-    060407 379  0.2+  0.4+  

060125 H45  0.2+  0.6-    060304 349  0.1+  0.2-    060407 379  0.4+  0.0   

060125 H45  0.5+  0.1-    060304 D83  0.0   0.4-    060407 048  0.2+  0.9-  

060125 H45  0.3+  0.2-    060304 D83  0.0   0.4-    060407 048  0.6+  0.6-  

060125 H45  0.5+  0.3-    060304 D83  0.1-  0.4-    060407 048  0.8+  0.8-  

060125 H45  0.1+  0.5-    060305 673  0.1+  0.8+    060407 048  0.3+  0.9-  

060125 213  0.7+  0.3+    060305 673  0.2-  0.5+    060407 048  0.4+  1.1-  

060125 213  0.5+  0.4+    060305 673  0.1-  0.8+    060407 442  0.5-  0.4-  

060125 213  0.4+  0.6+    060305 D88  0.2+  0.0     060407 442  0.6+  0.4-  

060127 704  0.2+  0.0     060305 D88  0.0   0.2+    060413 213  0.1+  0.5+  

060127 704  0.3+  0.2+    060305 D88  0.5-  0.3-    060413 939  0.3+  0.2+  

060127 704  0.3+  0.2+    060305 A32  0.2-  0.4-    060413 213  0.4-  0.5+  

060127 704  0.4+  0.2+    060305 A32  0.2+  0.2-    060413 213  0.2-  0.3+  

060127 704  0.2+  0.2+    060305 A32  0.3-  0.1-    060413 939  0.8+  0.3-  

060127 349  0.4+  0.1-    060305 213  0.1+  0.1+    060413 939  0.8+  0.9-  

060127 349  0.4+  0.3-    060305 213  0.7+  0.1-    060413 232  0.3-  0.2-  

060127 349  0.3+  0.1-    060306 J55  0.1-  0.4-    060413 232  0.1-  0.2-  

060131 H07  0.1-  0.1+    060306 J55  0.2-  0.3-    060413 232  0.1+  0.8-  

060131 H07  0.4-  0.0     060306 J55  0.2-  0.3-    060414 A79  1.0+  1.0+  

060131 H07  0.2-  0.0     060307 235  0.4+  0.2+    060414 A79  0.9+  0.1-  

060131 104  0.6+  0.0     060307 A32  0.0   0.1+    060414 A79  1.5+  0.8-  

060131 104  0.6+  0.2-    060307 A32  0.1+  0.0     060414 A79  0.9-  0.5+  

